Ridgeville, SC

5:45 PM EDT on August 27, 2016 (GMT -0400)
Summerville

Weather History for KDYB - November, 2013

Change the Weather History Date:

Thursday, November 28, 2013

  Actual Average (KCHS) Record (KCHS)
Temperature  
Mean Temperature 39 °F 55 °F  
Max Temperature 50 °F 66 °F 81 °F (1990)
Min Temperature 28 °F 44 °F 21 °F (1938)
Degree Days  
Heating Degree Days 26 10  
Month to date heating degree days 201  
Since 1 July heating degree days 270  
Cooling Degree Days 0 1  
Month to date cooling degree days 33  
Year to date cooling degree days 2297  
Moisture  
Dew Point 29 °F    
Average Humidity 77    
Maximum Humidity 100    
Minimum Humidity 40    
Precipitation  
Precipitation 0.00 in 0.08 in 1.55 in (1976)
Month to date precipitation 2.26  
Year to date precipitation 47.75  
Sea Level Pressure  
Sea Level Pressure 30.42 in    
Wind  
Wind Speed 2 mph (NNE)    
Max Wind Speed 10 mph    
Max Gust Speed 16 mph    
Visibility 10 miles    
Events      
T = Trace of Precipitation, MM = Missing Value Source: NWS Daily Summary

Daily Weather History Graph

Daily Weather History Graph

Search for Another Location

Airport or City:

Trip Planner

Search our weather history database for the weather conditions in past years. The results will help you decide how hot, cold, wet, or windy it might be!

Date:

Astronomy

Nov. 28, 2013 Rise Set
Actual Time 7:03 AM EST 5:14 PM EST
Civil Twilight 6:36 AM EST 5:41 PM EST
Nautical Twilight 6:06 AM EST 6:11 PM EST
Astronomical Twilight 5:36 AM EST 6:41 PM EST
Moon 2:18 AM EST (11/28) 2:10 PM EST (11/28)
Length of Visible Light 11h 04m
Length of Day
10h 10m
Waning Crescent, 22% of the Moon is Illuminated
Nov 28
Waning Crescent
Dec 2
New
Dec 9
First Quarter
Dec 17
Full
Dec 25
Last Quarter

Hourly Weather History & Observations

Time (EST) Temp. Windchill Dew Point Humidity Pressure Visibility Wind Dir Wind Speed Gust Speed Precip Events Conditions
12:15 AM 33.8 °F - 32.0 °F 93% 30.23 in 10.0 mi Calm Calm - N/A   Clear
1:15 AM 32.0 °F 28.7 °F 30.2 °F 93% 30.25 in 10.0 mi NNW 3.5 mph - N/A   Clear
1:55 AM 32.0 °F 28.7 °F 30.2 °F 93% 30.27 in 10.0 mi NNW 3.5 mph - N/A   Clear
2:15 AM 32.0 °F - 30.2 °F 93% 30.27 in 10.0 mi Calm Calm - N/A   Clear
2:35 AM 32.0 °F - 30.2 °F 93% 30.28 in 10.0 mi Calm Calm - N/A   Clear
2:55 AM 32.0 °F - 30.2 °F 93% 30.28 in 10.0 mi Calm Calm - N/A   Clear
3:35 AM 30.2 °F - 30.2 °F 100% 30.30 in 10.0 mi Calm Calm - N/A   Clear
3:55 AM 30.2 °F - 30.2 °F 100% 30.30 in 10.0 mi Calm Calm - N/A   Clear
4:35 AM 30.2 °F - 30.2 °F 100% 30.31 in 10.0 mi Calm Calm - N/A   Clear
6:15 AM 30.2 °F 26.7 °F 28.4 °F 93% 30.35 in 10.0 mi North 3.5 mph - N/A   Clear
6:55 AM 28.4 °F 23.3 °F 28.4 °F 100% 30.36 in 10.0 mi North 4.6 mph - N/A   Clear
8:15 AM 32.0 °F 27.5 °F 28.4 °F 87% 30.41 in 10.0 mi North 4.6 mph - N/A   Clear
8:35 AM 32.0 °F 27.5 °F 28.4 °F 87% 30.42 in 10.0 mi North 4.6 mph - N/A   Clear
8:55 AM 33.8 °F 28.6 °F 28.4 °F 81% 30.43 in 10.0 mi North 5.8 mph - N/A   Clear
9:15 AM 35.6 °F 29.2 °F 28.4 °F 75% 30.43 in 10.0 mi NNE 8.1 mph - N/A   Clear
9:35 AM 35.6 °F 28.0 °F 26.6 °F 70% 30.43 in 10.0 mi NNE 10.4 mph - N/A   Clear
9:55 AM 37.4 °F 30.8 °F 24.8 °F 60% 30.44 in 10.0 mi North 9.2 mph - N/A   Clear
10:35 AM 37.4 °F 31.4 °F 24.8 °F 60% 30.44 in 10.0 mi North 8.1 mph 16.1 mph N/A   Clear
10:55 AM 39.2 °F 32.5 °F 26.6 °F 61% 30.44 in 10.0 mi North 10.4 mph - N/A   Clear
11:15 AM 41.0 °F 36.4 °F 26.6 °F 57% 30.44 in 10.0 mi NNE 6.9 mph - N/A   Clear
11:35 AM 41.0 °F 39.0 °F 24.8 °F 53% 30.43 in 10.0 mi NNE 3.5 mph - N/A   Clear
11:55 AM 42.8 °F - 26.6 °F 53% 30.43 in 10.0 mi Calm Calm - N/A   Clear
12:15 PM 42.8 °F 40.1 °F 26.6 °F 53% 30.42 in 10.0 mi North 4.6 mph - N/A   Clear
12:35 PM 44.6 °F 41.4 °F 26.6 °F 49% 30.42 in 10.0 mi NW 5.8 mph - N/A   Clear
12:55 PM 44.6 °F - 26.6 °F 49% 30.41 in 10.0 mi Calm Calm - N/A   Clear
1:15 PM 46.4 °F 42.4 °F 26.6 °F 46% 30.40 in 10.0 mi NNW 8.1 mph - N/A   Clear
1:35 PM 46.4 °F 43.5 °F 26.6 °F 46% 30.40 in 10.0 mi NNW 5.8 mph - N/A   Clear
1:55 PM 46.4 °F 42.4 °F 26.6 °F 46% 30.40 in 10.0 mi NNW 8.1 mph - N/A   Clear
2:15 PM 48.2 °F - 26.6 °F 43% 30.40 in 10.0 mi Calm Calm - N/A   Clear
2:35 PM 50.0 °F - 26.6 °F 40% 30.40 in 10.0 mi Calm Calm - N/A   Clear
2:55 PM 48.2 °F - 26.6 °F 43% 30.40 in 10.0 mi Calm Calm - N/A   Clear
3:15 PM 48.2 °F - 28.4 °F 46% 30.40 in 10.0 mi NNE 3.5 mph - N/A   Clear
3:35 PM 48.2 °F - 26.6 °F 43% 30.41 in 10.0 mi North 3.5 mph - N/A   Clear
3:55 PM 46.4 °F 45.2 °F 28.4 °F 50% 30.41 in 10.0 mi East 3.5 mph - N/A   Clear
4:15 PM 46.4 °F 45.2 °F 28.4 °F 50% 30.42 in 10.0 mi ENE 3.5 mph - N/A   Clear
4:35 PM 46.4 °F 45.2 °F 28.4 °F 50% 30.42 in 10.0 mi ENE 3.5 mph - N/A   Clear
4:55 PM 44.6 °F - 28.4 °F 53% 30.43 in 10.0 mi Calm Calm - N/A   Clear
5:15 PM 42.8 °F - 28.4 °F 57% 30.43 in 10.0 mi Calm Calm - N/A   Clear
5:35 PM 41.0 °F - 32.0 °F 70% 30.45 in 10.0 mi Calm Calm - N/A   Clear
5:55 PM 37.4 °F - 32.0 °F 81% 30.46 in 10.0 mi Calm Calm - N/A   Clear
6:15 PM 37.4 °F - 32.0 °F 81% 30.47 in 10.0 mi Calm Calm - N/A   Clear
6:35 PM 35.6 °F - 32.0 °F 87% 30.47 in 10.0 mi Calm Calm - N/A   Clear
6:55 PM 33.8 °F - 32.0 °F 93% 30.48 in 10.0 mi Calm Calm - N/A   Clear
7:15 PM 33.8 °F - 32.0 °F 93% 30.48 in 10.0 mi Calm Calm - N/A   Clear
7:35 PM 33.8 °F 29.6 °F 32.0 °F 93% 30.49 in 10.0 mi ESE 4.6 mph - N/A   Clear
7:55 PM 32.0 °F - 32.0 °F 100% 30.49 in 10.0 mi Calm Calm - N/A   Clear
8:15 PM 32.0 °F - 32.0 °F 100% 30.49 in 10.0 mi Calm Calm - N/A   Clear
8:35 PM 32.0 °F - 32.0 °F 100% 30.49 in 10.0 mi Calm Calm - N/A   Clear
8:55 PM 32.0 °F - 32.0 °F 100% 30.49 in 10.0 mi Calm Calm - N/A   Clear
9:15 PM 32.0 °F - 32.0 °F 100% 30.50 in 10.0 mi Calm Calm - N/A   Clear
9:35 PM 32.0 °F - 32.0 °F 100% 30.50 in 10.0 mi Calm Calm - N/A   Clear
9:55 PM 32.0 °F - 32.0 °F 100% 30.50 in 10.0 mi Calm Calm - N/A   Clear
10:15 PM 32.0 °F - 32.0 °F 100% 30.50 in 10.0 mi Calm Calm - N/A   Clear
10:35 PM 32.0 °F - 32.0 °F 100% 30.50 in 10.0 mi Calm Calm - N/A   Clear
10:55 PM 32.0 °F - 32.0 °F 100% 30.50 in 10.0 mi Calm Calm - N/A   Clear
11:15 PM 32.0 °F - 32.0 °F 100% 30.50 in 10.0 mi Calm Calm - N/A   Clear
11:35 PM 32.0 °F - 32.0 °F 100% 30.49 in 10.0 mi Calm Calm - N/A   Clear
11:55 PM 32.0 °F - 32.0 °F 100% 30.49 in 10.0 mi Calm Calm - N/A   Clear